This demonstration page uses our WeatherBlox Daily Observations layout. Learn more.

Left ArrowRight Arrow

Hourly Observations for February 21, 2020

Temp ( °F °C ) Dew Point ( °F °C ) Humidity (%) Winds ( mph kmh ) Pressure ( in mb ) Visibility ( mi km ) Precip ( " mm )
12:11 am 00:11 Cloudy with Light Snow 36 2.2 31 -0.6 82 82 NE 18 30 30.36 1028 7 11 0.00 0.00
12:59 am 00:59 Windy with Snow Likely 33 0.6 29 -1.7 85 85 NE 22 35 30.37 1028 3 5 0.00 0.00
1:50 am 01:50 Cloudy 34 1.1 28 -2.2 79 79 NE 15 24 30.34 1027 9 14 0.00 0.00
1:59 am 01:59 Cloudy 35 1.7 28 -2.2 76 76 NE 20 31 30.34 1028 10 16 0.00 0.00
2:59 am 02:59 Cloudy 36 2.2 24 -4.4 62 62 NNE 23 37 30.34 1028 10 16 0.00 0.00
3:59 am 03:59 Cloudy 36 2.2 23 -5 59 59 NNE 20 31 30.34 1027 10 16 0.00 0.00
4:59 am 04:59 Cloudy 35 1.7 21 -6.1 57 57 NNE 26 43 30.36 1028 10 16 0.00 0.00
5:59 am 05:59 Cloudy 34 1.1 19 -7.2 54 54 N 20 31 30.39 1029 10 16 0.00 0.00
6:59 am 06:59 Mostly Cloudy 33 0.6 18 -7.8 54 54 NNE 25 41 30.42 1030 10 16 0.00 0.00
7:59 am 07:59 Mostly Cloudy 32 0 18 -7.8 56 56 N 22 35 30.46 1031 10 16 0.00 0.00
8:59 am 08:59 Mostly Cloudy 31 -0.6 17 -8.3 56 56 NNE 23 37 30.49 1032 10 16 0.00 0.00
9:59 am 09:59 Partly Cloudy 32 0 18 -7.8 56 56 N 25 41 30.50 1033 10 16 0.00 0.00
10:59 am 10:59 Partly Cloudy 33 0.6 17 -8.3 52 52 NNE 26 43 30.52 1033 10 16 0.00 0.00
11:59 am 11:59 Partly Cloudy 33 0.6 17 -8.3 52 52 N 22 35 30.53 1034 10 16 0.00 0.00
12:59 pm 12:59 Partly Cloudy 35 1.7 19 -7.2 52 52 N 18 30 30.51 1033 10 16 0.00 0.00
1:59 pm 13:59 Mostly Sunny 35 1.7 18 -7.8 50 50 N 18 30 30.50 1033 10 16 0.00 0.00
2:59 pm 14:59 Mostly Sunny 35 1.7 18 -7.8 50 50 NNE 17 28 30.49 1033 10 16 0.00 0.00
3:59 pm 15:59 Mostly Sunny 35 1.7 19 -7.2 52 52 NNE 14 22 30.49 1033 10 16 0.00 0.00
4:59 pm 16:59 Mostly Sunny 35 1.7 19 -7.2 52 52 N 14 22 30.49 1032 10 16 0.00 0.00
5:59 pm 17:59 Mostly Clear 34 1.1 14 -10 44 44 N 14 22 30.49 1033 10 16 0.00 0.00
6:59 pm 18:59 Mostly Clear 34 1.1 13 -10.6 42 42 N 14 22 30.50 1033 10 16 0.00 0.00
7:59 pm 19:59 Clear 34 1.1 14 -10 44 44 N 8 13 30.50 1033 10 16 0.00 0.00
8:59 pm 20:59 Clear 34 1.1 13 -10.6 42 42 NNW 9 15 30.50 1033 10 16 0.00 0.00
9:59 pm 21:59 Clear 33 0.6 16 -8.9 49 49 N 6 9 30.49 1033 10 16 0.00 0.00
10:59 pm 22:59 Clear 33 0.6 15 -9.4 47 47 NNW 5 7 30.48 1032 10 16 0.00 0.00
11:59 pm 23:59 Clear 33 0.6 14 -10 45 45 N 7 11 30.46 1032 10 16 0.00 0.00

Powered by AerisWeather